Stations météo

réclame
Mon MeteoGroup
Bilbao/Aeropuerto, Espagne (8025): Température de l'air & dewpoint: 16.10.2017 14:00:00 - 22.10.2017 14:00:00 (CEST)Bilbao/Aeropuerto, Espagne (8025): Vitesse du vent & gusts: 16.10.2017 14:00:00 - 22.10.2017 14:00:00 (CEST)Bilbao/Aeropuerto, Espagne (8025): Direction du vent: 16.10.2017 14:00:00 - 22.10.2017 14:00:00 (CEST)Bilbao/Aeropuerto, Espagne (8025): reduced air pressure: 16.10.2017 14:00:00 - 22.10.2017 14:00:00 (CEST)Bilbao/Aeropuerto, Espagne (8025): visibility: 16.10.2017 14:00:00 - 22.10.2017 14:00:00 (CEST)
Date & Time tt [°C] td [°C] ff [km/h] ff [knt] fx [km/h] fx [knt] dd ppp [hPa] vv [km]
22.10.2017 14:00:00 - - - - - - - - -
22.10.2017 13:00:00 15,2 11,5 9 5 - - W 1030,5 -
22.10.2017 12:00:00 13,8 11,8 8 4 - - W 1030,7 -
22.10.2017 11:00:00 13,6 12,0 4 2 - - NW 1030,5 10
22.10.2017 10:00:00 12,6 12,0 8 4 - - WSW 1030,5 -
22.10.2017 09:00:00 12,7 11,9 2 1 - - E 1029,4 -
22.10.2017 08:00:00 12,5 12,0 4 2 - - S 1029,3 15
22.10.2017 07:00:00 12,5 11,6 0 0 - - N 1028,8 -
22.10.2017 06:00:00 13,1 11,2 4 2 - - NW 1028,7 -
22.10.2017 05:00:00 13,0 10,9 4 2 - - WNW 1028,7 15
22.10.2017 04:00:00 13,8 10,6 4 2 - - NW 1028,3 -
22.10.2017 03:00:00 14,4 9,6 8 4 - - NNW 1028,7 -
22.10.2017 02:00:00 14,8 10,0 8 4 - - W 1028,7 -
22.10.2017 01:00:00 15,4 9,7 9 5 - - W 1028,7 -
22.10.2017 00:00:00 16,0 9,2 8 4 - - W 1028,3 -
21.10.2017 23:00:00 16,0 9,4 11 6 - - W 1028,0 20
21.10.2017 22:00:00 16,2 9,6 13 7 - - W 1027,9 -
21.10.2017 21:00:00 16,6 9,4 5 3 - - W 1027,7 -
21.10.2017 20:00:00 16,6 8,7 16 9 - - WNW 1027,3 20
21.10.2017 19:00:00 16,9 9,7 9 5 - - WNW 1026,8 -
21.10.2017 18:00:00 17,0 10,3 26 14 - - NW 1026,3 -
21.10.2017 17:00:00 17,7 10,7 24 13 - - NW 1025,7 25
21.10.2017 16:00:00 17,4 11,7 24 13 - - NW 1025,4 -
21.10.2017 15:00:00 18,0 11,7 22 12 - - NNW 1025,2 -
21.10.2017 14:00:00 18,8 10,8 24 13 - - NW 1024,8 20
21.10.2017 13:00:00 18,7 10,7 5 3 - - WNW 1024,9 -
21.10.2017 12:00:00 17,1 13,8 5 3 - - E 1024,7 -
21.10.2017 11:00:00 15,9 14,3 8 4 - - ESE 1024,4 15
21.10.2017 10:00:00 15,1 13,1 5 3 - - ESE 1024,0 -
21.10.2017 09:00:00 15,6 12,3 8 4 - - WNW 1023,5 -
21.10.2017 08:00:00 15,8 14,2 18 10 - - WNW 1022,5 12
21.10.2017 07:00:00 16,0 14,0 24 13 - - WNW 1021,6 -
21.10.2017 06:00:00 18,1 14,2 22 12 - - WNW 1020,6 -
21.10.2017 05:00:00 17,8 15,4 21 11 - - NW 1020,1 12
21.10.2017 04:00:00 18,7 15,6 37 20 76 41 NW 1019,3 -
21.10.2017 03:00:00 24,8 13,7 24 13 - - SW 1016,4 -
21.10.2017 02:00:00 25,0 13,9 21 11 - - SW 1015,5 -
21.10.2017 01:00:00 24,0 13,5 11 6 - - S 1015,3 -
21.10.2017 00:00:00 23,6 11,9 18 10 - - S 1015,0 -
20.10.2017 23:00:00 23,4 10,4 16 9 - - S 1015,0 15
20.10.2017 22:00:00 23,0 10,4 16 9 - - S 1015,1 -
20.10.2017 21:00:00 19,5 12,3 15 8 - - ESE 1015,4 -
20.10.2017 20:00:00 19,7 15,3 5 3 - - E 1015,5 40
20.10.2017 19:00:00 22,5 14,1 0 0 - - N 1015,2 -
20.10.2017 18:00:00 23,9 14,2 8 4 - - WNW 1015,4 -
20.10.2017 17:00:00 24,4 14,0 11 6 - - WNW 1015,7 50
20.10.2017 16:00:00 25,6 13,4 8 4 - - WNW 1015,7 -
20.10.2017 15:00:00 25,6 11,1 13 7 - - WSW 1016,1 -
20.10.2017 14:00:00 24,1 12,2 11 6 - - W 1016,4 30
20.10.2017 13:00:00 23,2 12,9 5 3 - - SSW 1017,0 -
20.10.2017 12:00:00 20,9 13,4 9 5 - - ESE 1017,2 -
20.10.2017 11:00:00 17,3 12,5 11 6 - - ESE 1017,3 30
20.10.2017 10:00:00 15,9 12,5 8 4 - - SE 1017,3 -
20.10.2017 09:00:00 15,1 11,7 5 3 - - ESE 1017,0 -
20.10.2017 08:00:00 14,9 11,5 5 3 - - E 1016,4 30
20.10.2017 07:00:00 14,8 11,8 8 4 - - E 1015,8 -
20.10.2017 06:00:00 15,2 11,8 4 2 - - ESE 1015,4 -
20.10.2017 05:00:00 15,6 11,8 4 2 - - E 1015,3 30
20.10.2017 04:00:00 15,7 11,9 0 0 - - N 1015,0 -
20.10.2017 03:00:00 16,2 11,2 8 4 - - E 1014,9 -
20.10.2017 02:00:00 16,6 11,4 4 2 - - E 1015,0 -
20.10.2017 01:00:00 17,0 10,8 4 2 - - E 1014,3 -
20.10.2017 00:00:00 17,7 10,2 5 3 - - ESE 1013,6 -
19.10.2017 23:00:00 17,3 10,1 8 4 - - SE 1012,8 15
19.10.2017 22:00:00 16,7 11,0 8 4 - - SE 1012,2 -
19.10.2017 21:00:00 15,4 12,3 5 3 - - ESE 1011,9 -
19.10.2017 20:00:00 16,6 13,3 8 4 - - ESE 1011,5 40
19.10.2017 19:00:00 18,7 12,7 9 5 - - ESE 1010,6 -
19.10.2017 18:00:00 21,6 11,8 4 2 - - SE 1010,4 -
19.10.2017 17:00:00 22,5 10,9 5 3 - - S 1010,1 45
19.10.2017 16:00:00 21,7 11,3 0 0 - - N 1009,9 -
19.10.2017 15:00:00 22,1 11,7 4 2 - - S 1010,7 -
19.10.2017 14:00:00 20,6 11,4 11 6 - - S 1011,2 25
19.10.2017 13:00:00 19,5 11,4 11 6 - - SSE 1012,3 -
19.10.2017 12:00:00 18,2 12,5 4 2 - - SSE 1012,3 -
19.10.2017 11:00:00 17,0 12,5 0 0 - - N 1012,4 25
19.10.2017 10:00:00 14,7 13,0 0 0 - - N 1012,1 -
19.10.2017 09:00:00 12,6 12,3 0 0 - - N 1012,0 -
19.10.2017 08:00:00 12,3 12,0 4 2 - - ESE 1011,8 15
19.10.2017 07:00:00 12,9 12,6 4 2 - - SE 1011,4 -
19.10.2017 06:00:00 13,4 13,0 4 2 - - ESE 1011,3 -
19.10.2017 05:00:00 13,7 13,1 4 2 - - NE 1011,5 15
19.10.2017 04:00:00 13,8 13,3 5 3 - - E 1011,4 -
19.10.2017 03:00:00 13,9 13,6 0 0 - - N 1011,3 -
19.10.2017 02:00:00 14,1 13,8 2 1 - - E 1011,3 -
19.10.2017 01:00:00 14,0 13,8 2 1 - - ESE 1011,4 -
19.10.2017 00:00:00 14,2 13,9 2 1 - - SSE 1011,7 -
18.10.2017 23:00:00 14,3 13,7 0 0 - - N 1011,2 15
18.10.2017 22:00:00 14,4 13,9 4 2 - - W 1011,2 -
18.10.2017 21:00:00 14,5 14,0 4 2 - - W 1010,9 -
18.10.2017 20:00:00 14,5 14,0 5 3 - - W 1010,6 6
18.10.2017 19:00:00 16,2 13,8 8 4 - - NNW 1010,0 -
18.10.2017 18:00:00 16,7 14,5 4 2 - - WNW 1009,8 -
18.10.2017 17:00:00 16,5 14,9 4 2 - - ESE 1009,4 20
18.10.2017 16:00:00 16,2 14,4 4 2 - - ESE 1009,8 -
18.10.2017 15:00:00 15,9 14,6 8 4 - - ESE 1009,6 -
18.10.2017 14:00:00 15,6 14,0 4 2 - - SE 1010,2 20
18.10.2017 13:00:00 16,9 14,4 0 0 - - N 1010,3 -
18.10.2017 12:00:00 - - - - - - - - -
18.10.2017 11:00:00 18,3 12,7 11 6 - - S 1010,4 30
18.10.2017 10:00:00 - - - - - - - - -
18.10.2017 09:00:00 - - - - - - - - -
18.10.2017 08:00:00 17,5 11,3 16 9 - - S 1010,6 15
18.10.2017 07:00:00 - - - - - - - - -
18.10.2017 06:00:00 - - - - - - - - -
18.10.2017 05:00:00 13,8 13,6 0 0 - - N 1012,2 15
18.10.2017 04:00:00 - - - - - - - - -
18.10.2017 03:00:00 - - - - - - - - -
18.10.2017 02:00:00 - - - - - - - - -
18.10.2017 01:00:00 - - - - - - - - -
18.10.2017 00:00:00 17,6 17,1 0 0 - - N 1014,5 -
17.10.2017 23:00:00 17,8 17,3 0 0 - - N 1014,8 8
17.10.2017 22:00:00 18,4 17,4 0 0 - - N 1014,7 -
17.10.2017 21:00:00 18,4 17,6 2 1 - - WNW 1014,9 -
17.10.2017 20:00:00 18,7 17,4 0 0 - - N 1014,9 5
17.10.2017 19:00:00 19,1 17,6 4 2 - - WNW 1014,9 -
17.10.2017 18:00:00 20,1 17,0 18 10 - - WNW 1014,4 -
17.10.2017 17:00:00 24,7 14,3 8 4 - - SW 1013,9 20
17.10.2017 16:00:00 25,1 11,7 16 9 - - SE 1013,7 -
17.10.2017 15:00:00 25,9 12,4 18 10 - - SSE 1014,2 -
17.10.2017 14:00:00 25,3 13,2 16 9 - - SSE 1015,3 30
17.10.2017 13:00:00 26,0 13,2 15 8 - - SSE 1015,9 -
17.10.2017 12:00:00 24,3 13,0 11 6 - - SSE 1016,7 -
17.10.2017 11:00:00 22,7 13,0 16 9 - - SE 1017,4 30
17.10.2017 10:00:00 21,0 12,8 15 8 - - ESE 1017,5 -
17.10.2017 09:00:00 20,1 12,6 16 9 - - ESE 1017,4 -
17.10.2017 08:00:00 20,6 12,1 11 6 - - E 1017,5 30
17.10.2017 07:00:00 20,8 13,0 13 7 - - E 1017,5 -
17.10.2017 06:00:00 20,3 13,5 15 8 - - E 1017,7 -
17.10.2017 05:00:00 15,1 14,3 5 3 - - ESE 1018,1 30
17.10.2017 04:00:00 15,1 14,5 0 0 - - N 1019,2 -
17.10.2017 03:00:00 15,1 14,5 9 5 - - SE 1019,7 -
17.10.2017 02:00:00 15,2 14,9 9 5 - - ESE 1020,7 -
17.10.2017 01:00:00 16,0 15,5 11 6 - - E 1021,6 -
17.10.2017 00:00:00 16,6 15,3 4 2 - - E 1022,6 -
16.10.2017 23:00:00 17,8 15,8 5 3 - - E 1023,0 15
16.10.2017 22:00:00 19,0 16,4 2 1 - - ENE 1023,4 -
16.10.2017 21:00:00 19,1 16,3 4 2 - - N 1023,7 -
16.10.2017 20:00:00 19,4 16,6 5 3 - - NW 1023,7 8
16.10.2017 19:00:00 20,3 16,3 8 4 - - NNW 1023,3 -
16.10.2017 18:00:00 21,2 16,4 11 6 - - N 1023,1 -
16.10.2017 17:00:00 22,0 16,3 13 7 - - NNW 1022,8 8
16.10.2017 16:00:00 22,4 16,7 15 8 - - NNW 1023,0 -
16.10.2017 15:00:00 23,1 16,8 21 11 - - NW 1022,8 -
16.10.2017 14:00:00 23,7 17,2 22 12 - - NW 1022,8 14

tt = Température de l'air
td = dewpoint
ff = Vitesse du vent
fx = gusts
dd = Direction du vent
ppp = reduced air pressure
vv = visibility

stations d'obs. à proximité